Orbital Elements at Epoch 2459200.5 (2020-Dec-17.0) TDB
Reference: JPL 12 (heliocentric ecliptic J2000)
Element | Value | Uncertainty (1-sigma) | Units |
e | .1228455680644071 | 1.1657e-05 | |
a | 39.11172456193686 | 0.0011734 | au |
q | 34.3070225401471 | 0.0012234 | au |
i | 13.26931924036728 | 4.1521e-05 | deg |
node | 18.96258169426855 | 0.00043305 | deg |
peri | 166.7083625339727 | 0.010513 | deg |
M | 285.8872027741553 | 0.0099358 | deg |
tp | 2477593.373329597529 (2071-Apr-26.87332960) | 1.6498 | TDB |
period | 89342.65938549786 244.61 | 4.0206 0.01101 | d yr |
n | .004029430089456632 | 1.8133e-07 | deg/d |
Q | 43.91642658372662 | 0.0013175 | au |
|
| | Orbit Determination Parameters
Additional Information
|